Date String (YYYY-MM-DD hh:mm:ss) UTC,Instrument flags,Ambient pressure (hPa),Sample flow (lpm),Bypass flow (lpm),Sample temperature (°C),Ambient temperature (°C),ASC tube jacket temperature (°C),LED temperature (°C),Box temperature (°C),Sample RH (%),Span deviation,Mass concentration (μg/m³),Mass concentration (μg/m³),Mass concentration (μg/m³)
DateTimeUTC,F1_M11,P_M11,Q1_M11,Q2_M11,T1_M11,T2_M11,T3_M11,T4_M11,T5_M11,U1_M11,ZSPAN_M11,X0_M11,X2_M11,X1_M11
2022-01-05 18:00:00,,0816.0,5.00,0.00,22.9,23.2,00.0,31.7,24.8,10.0,0000.0,0007.44,0003.87,0003.61
2022-01-05 18:01:00,,0816.0,5.00,0.00,22.9,23.0,00.0,31.7,24.8,09.9,0000.0,0007.41,0003.89,0003.61
2022-01-05 18:02:00,,0816.0,5.01,0.00,22.9,22.9,00.0,31.7,24.8,09.9,0000.0,0007.50,0003.89,0003.62
2022-01-05 18:03:00,,0815.8,5.01,0.00,22.9,22.7,00.0,31.7,24.8,09.9,0000.0,0007.49,0003.87,0003.63
2022-01-05 18:04:00,,0815.9,4.98,0.00,22.9,22.6,00.0,31.8,24.7,09.9,0000.0,0007.68,0003.86,0003.63
2022-01-05 18:05:00,,0815.7,5.01,0.00,22.9,22.5,00.0,31.8,24.7,09.9,0000.0,0007.63,0003.88,0003.64
2022-01-05 18:06:00,,0815.8,5.00,0.00,22.9,22.4,00.0,31.8,24.7,09.9,0000.0,0007.68,0003.91,0003.66
2022-01-05 18:07:00,,0815.9,4.99,0.00,22.9,22.4,00.0,31.8,24.7,10.0,0000.0,0007.74,0003.94,0003.68
2022-01-05 18:08:00,,0815.8,4.99,0.00,22.9,22.3,00.0,31.8,24.7,10.0,0000.0,0007.74,0003.96,0003.69
2022-01-05 18:09:00,,0815.7,5.01,0.00,22.9,22.3,00.0,31.8,24.7,09.9,0000.0,0007.75,0003.97,0003.70
2022-01-05 18:10:00,,0815.6,5.01,0.00,22.9,22.2,00.0,31.8,24.7,09.9,0000.0,0007.75,0003.98,0003.71
2022-01-05 18:11:00,,0815.5,4.97,0.00,22.9,22.2,00.0,31.8,24.7,10.0,0000.0,0007.75,0003.96,0003.70
2022-01-05 18:12:00,,0815.7,5.00,0.00,22.9,22.2,00.0,31.8,24.7,10.2,0000.0,0007.69,0003.93,0003.68
2022-01-05 18:13:00,,0815.6,5.01,0.00,22.9,22.2,00.0,31.8,24.7,10.1,0000.0,0007.24,0003.91,0003.67
2022-01-05 18:14:00,,0815.9,5.00,0.00,22.9,22.1,00.0,31.8,24.7,10.1,0000.0,0007.16,0003.92,0003.66
2022-01-05 18:15:00,,0815.9,4.99,0.00,22.9,22.1,00.0,31.8,24.6,10.1,0000.0,0006.60,0003.91,0003.65
2022-01-05 18:16:00,,0815.8,5.02,0.00,22.9,22.1,00.0,31.8,24.6,10.1,0000.0,0006.50,0003.89,0003.64
2022-01-05 18:17:00,,0815.8,5.01,0.00,22.9,22.1,00.0,31.8,24.6,10.2,0000.0,0006.58,0003.88,0003.62
2022-01-05 18:18:00,,0816.0,5.00,0.00,22.9,22.1,00.0,31.8,24.6,10.1,0000.0,0006.37,0003.83,0003.61
2022-01-05 18:19:00,,0816.1,5.00,0.00,22.9,22.1,00.0,31.8,24.6,10.0,0000.0,0006.37,0003.80,0003.59
2022-01-05 18:20:00,,0815.8,5.01,0.00,22.8,22.0,00.0,31.8,24.6,10.1,0000.0,0006.49,0003.81,0003.57
2022-01-05 18:21:00,,0816.0,5.00,0.00,22.8,22.0,00.0,31.8,24.6,10.2,0000.0,0006.44,0003.79,0003.55
2022-01-05 18:22:00,,0815.8,5.01,0.00,22.8,22.0,00.0,31.8,24.6,10.1,0000.0,0006.64,0003.77,0003.55
2022-01-05 18:23:00,,0815.5,5.01,0.00,22.8,22.0,00.0,31.8,24.6,10.1,0000.0,0006.85,0003.79,0003.55
2022-01-05 18:24:00,,0815.9,5.00,0.00,22.8,22.0,00.0,31.8,24.6,10.1,0000.0,0007.74,0003.81,0003.56
2022-01-05 18:25:00,,0815.4,5.00,0.00,22.8,22.0,00.0,31.8,24.5,10.2,0000.0,0007.91,0003.80,0003.55
2022-01-05 18:26:00,,0815.4,5.01,0.00,22.8,22.0,00.0,31.7,24.5,10.2,0000.0,0007.67,0003.80,0003.55
2022-01-05 18:27:00,,0815.5,5.00,0.00,22.8,22.0,00.0,31.7,24.5,10.1,0000.0,0007.66,0003.80,0003.55
2022-01-05 18:28:00,,0816.0,5.00,0.00,22.8,22.0,00.0,31.7,24.5,10.1,0000.0,0007.62,0003.80,0003.55
2022-01-05 18:29:00,,0816.1,5.00,0.00,22.8,21.9,00.0,31.7,24.5,10.1,0000.0,0007.64,0003.81,0003.55
2022-01-05 18:30:00,,0815.7,5.00,0.00,22.8,21.9,00.0,31.7,24.5,10.2,0000.0,0007.62,0003.81,0003.56
2022-01-05 18:31:00,,0815.4,5.00,0.00,22.8,22.1,00.0,31.7,24.5,10.3,0000.0,0007.69,0003.80,0003.58
2022-01-05 18:32:00,,0815.7,5.00,0.00,22.9,22.8,00.0,31.8,24.7,10.3,0000.0,0007.79,0003.82,0003.60
2022-01-05 18:33:00,,0816.1,5.02,0.00,23.0,23.4,00.0,31.8,24.9,10.1,0000.0,0007.97,0003.84,0003.61
2022-01-05 18:34:00,,0815.6,5.00,0.00,23.0,23.3,00.0,31.8,24.9,10.0,0000.0,0007.96,0003.85,0003.62
2022-01-05 18:35:00,,0815.4,4.99,0.00,23.1,23.1,00.0,31.8,24.9,10.2,0000.0,0007.24,0003.85,0003.64
2022-01-05 18:36:00,,0815.5,5.00,0.00,23.1,23.0,00.0,31.9,24.9,10.2,0000.0,0006.71,0003.87,0003.65
2022-01-05 18:37:00,,0815.3,5.01,0.00,23.1,22.9,00.0,31.9,24.9,10.1,0000.0,0006.87,0003.90,0003.67
2022-01-05 18:38:00,,0815.3,5.01,0.00,23.1,22.8,00.0,31.9,24.9,10.2,0000.0,0006.99,0003.93,0003.70
2022-01-05 18:39:00,,0815.2,5.00,0.00,23.1,22.7,00.0,31.9,24.9,10.1,0000.0,0007.05,0003.95,0003.72
2022-01-05 18:40:00,,0815.2,4.99,0.00,23.1,22.6,00.0,31.9,24.9,10.0,0000.0,0007.15,0003.96,0003.73
2022-01-05 18:41:00,,0815.3,4.99,0.00,23.1,22.6,00.0,31.9,24.9,10.0,0000.0,0007.89,0003.97,0003.74
2022-01-05 18:42:00,,0815.3,5.00,0.00,23.1,22.5,00.0,31.9,24.9,10.1,0000.0,0008.33,0003.99,0003.75
2022-01-05 18:43:00,,0815.3,5.00,0.00,23.1,22.5,00.0,32.0,24.9,10.2,0000.0,0008.25,0003.99,0003.76
2022-01-05 18:44:00,,0815.1,5.00,0.00,23.1,22.5,00.0,32.0,24.9,10.4,0000.0,0008.03,0003.99,0003.77
2022-01-05 18:45:00,,0815.1,5.00,0.00,23.1,22.5,00.0,32.0,24.9,10.2,0000.0,0007.94,0003.99,0003.78
2022-01-05 18:46:00,,0815.2,5.01,0.00,23.1,22.4,00.0,32.0,24.9,10.3,0000.0,0007.89,0003.99,0003.78
2022-01-05 18:47:00,,0815.2,4.99,0.00,23.1,22.4,00.0,32.0,24.9,10.3,0000.0,0007.77,0003.97,0003.77
2022-01-05 18:48:00,,0815.3,5.02,0.00,23.1,22.4,00.0,32.0,24.9,10.5,0000.0,0007.78,0003.98,0003.78
2022-01-05 18:49:00,,0815.2,4.99,0.00,23.1,22.4,00.0,32.0,24.8,10.3,0000.0,0007.77,0003.99,0003.78
2022-01-05 18:50:00,,0815.1,5.00,0.00,23.1,22.4,00.0,32.0,24.8,10.1,0000.0,0007.80,0003.99,0003.77
2022-01-05 18:51:00,,0815.0,4.99,0.00,23.1,22.3,00.0,32.0,24.8,10.1,0000.0,0007.78,0003.99,0003.76
2022-01-05 18:52:00,,0815.1,5.01,0.00,23.1,22.3,00.0,32.0,24.8,10.2,0000.0,0007.07,0004.00,0003.76
2022-01-05 18:53:00,,0815.1,4.99,0.00,23.1,22.3,00.0,32.0,24.8,10.2,0000.0,0006.32,0004.00,0003.76
2022-01-05 18:54:00,,0815.1,5.00,0.00,23.1,22.3,00.0,32.0,24.8,10.2,0000.0,0005.94,0003.98,0003.75
2022-01-05 18:55:00,,0815.1,5.00,0.00,23.1,22.3,00.0,32.0,24.8,10.4,0000.0,0005.96,0003.99,0003.74
2022-01-05 18:56:00,,0814.9,4.99,0.00,23.1,22.3,00.0,32.0,24.8,10.3,0000.0,0006.89,0003.99,0003.73
2022-01-05 18:57:00,,0814.9,5.01,0.00,23.1,22.3,00.0,32.0,24.8,10.2,0000.0,0007.20,0004.00,0003.73
2022-01-05 18:58:00,,0814.8,4.99,0.00,23.1,22.3,00.0,32.0,24.8,10.3,0000.0,0007.40,0004.02,0003.74
2022-01-05 18:59:00,,0814.9,5.01,0.00,23.1,22.3,00.0,32.0,24.8,10.2,0000.0,0007.36,0004.00,0003.74
